Regional Weather Roundup
Issued by NWS

Home | Current Version | Previous Version | Graphics & Text | Print | Product List | Glossary On
Versions: 1 2 3 4 5 6 7 8 9 10 11 12 13 14 15 16 17 18 19 20 21 22 23 24 25 26 27 28 29 30 31 32 33 34 35 36 37 38 39 40 41 42 43 44 45 46 47 48 49 50
000
ASUS43 KFSD 120402
RWRSD

WEATHER ROUNDUP FOR SOUTH DAKOTA
NATIONAL WEATHER SERVICE SIOUX FALLS SD
1100 PM CDT FRI JUL 11 2014

NOTE: "FAIR" INDICATES FEW OR NO CLOUDS BELOW 12,000 FEET WITH NO
SIGNIFICANT WEATHER AND/OR OBSTRUCTIONS TO VISIBILITY.


SDZ001>005-009-010-012>017-120500-
NORTHWEST AND NORTH CENTRAL SOUTH DAKOTA

CITY           SKY/WX    TMP DP  RH WIND       PRES   REMARKS
BUFFALO          N/A     67  57  70 E9        30.08R
FAITH            N/A     71  63  75 NE9       30.09R
MOBRIDGE       CLOUDY    72  58  61 N10       30.05R
$$

SDZ012>016-024>037-041>051-057-063-072>074-120500-
SOUTHWEST AND SOUTH CENTRAL SOUTH DAKOTA

CITY           SKY/WX    TMP DP  RH WIND       PRES   REMARKS
RAPID CTY ARPT CLOUDY    67  59  75 S12       30.12F
PIERRE         CLOUDY    73  65  75 NE5       30.01R
CUSTER         LGT RAIN  58  55  90 SW6       30.28R
ELLSWORTH AFB  CLOUDY    68  59  72 SW9       30.12S
PHILIP         CLOUDY    72  63  73 W10       30.07R
PINE RIDGE     HVY RAIN  62  61  96 NE5       30.16S FOG
WINNER         FAIR      79  64  60 CALM      30.01F
$$

SDZ004>011-016>023-039-040-120500-
NORTHEAST SOUTH DAKOTA

CITY           SKY/WX    TMP DP  RH WIND       PRES   REMARKS
ABERDEEN       CLOUDY    73  64  73 N8        30.03R
WATERTOWN      CLOUDY    75  66  73 CALM      30.03R
SISSETON         N/A     73  67  81 NW6       30.01R
$$

SDZ017-020-022-023-036>040-048>070-120500-
SOUTHEAST SOUTH DAKOTA

CITY           SKY/WX    TMP DP  RH WIND       PRES   REMARKS
SIOUX FALLS    CLOUDY    76  72  87 CALM      30.02S
HURON          CLOUDY    79  69  71 SE5       29.99R
CHAMBERLAIN    CLOUDY    78  68  72 CALM      30.01F
MITCHELL       CLOUDY    79  75  87 S5        30.00R
YANKTON          N/A    N/A N/A N/A MISG        N/A
$$

ABBREVIATIONS USED IN REMARKS
   TC - TEMPERATURE IN CELSIUS
  WCI - WIND CHILL INDEX
   HX - HEAT INDEX
  VSB - VISIBILITY




USA.gov is the U.S. government's official web portal to all federal, state and local government web resources and services.